View from above orbital plane
|
View from above satellite
|
Ground track
|
The orbit data is extracted from the following two-line orbital elements,
1 23560U 95021A 21065.89745325 .00001334 00000-0 59308-4 0 9990
2 23560 98.5552 261.7472 0003599 18.0856 342.0505 15.23718417382107
Epoch (UTC): | 06 March 2021 21:32:19 |
Eccentricity: | 0.0003599 |
inclination: | 98.5552° |
perigee height: | 492 km |
apogee height: | 497 km |
right ascension of ascending node: | 261.7472° |
argument of perigee: | 18.0856° |
revolutions per day: | 15.23718417 |
mean anomaly at epoch: | 342.0505° |
orbit number at epoch: | 38210 |
The dashed part of the orbit path shows where the satellite is in the earth's shadow,
|
|